EW3016 Weather Reports


Display with metric or nautical units.
time (UTC)temp
F
wind
direction
speed
MPH
gust
MPH
rain 1hr
in
rain 24hr
in
rain mn
in
humidity
%
barometer
mb
20260906103017 58 0.0 1.0 0.00 0.00 0.00 96 1016.3
20260906100038 58 0.0 2.0 0.00 0.00 0.00 96 1016.1
20260906093018 58 0.0 1.0 0.00 0.00 0.00 96 1015.9
20260906090017 58 0.0 2.0 0.00 0.00 0.00 96 1015.8
20260906083017 58 0.0 0.0 0.00 0.00 0.00 96 1015.6
20260906080017 58 0.0 0.0 0.00 0.00 0.00 95 1015.6
20260906073017 59 0.0 0.0 0.00 0.00 0.00 95 1015.6
20260906070017 58 0.0 0.0 0.00 0.00 0.00 95 1015.3
20260906063017 58 0.0 0.0 0.00 0.00 0.00 94 1015.2
20260906060017 58 0.0 0.0 0.00 0.00 0.00 94 1015.2
20260906053039 59 0.0 0.0 0.00 0.00 0.00 94 1015.6
20260906050017 59 0.0 0.0 0.00 0.00 0.00 93 1015.8
20260906043017 60 0.0 0.0 0.00 0.00 0.00 94 1015.7
20260906040017 60 0.0 0.0 0.00 0.00 0.00 93 1015.6
20260906033017 61 0.0 0.0 0.00 0.00 0.00 92 1015.4
20260906030017 61 0.0 0.0 0.00 0.00 0.00 92 1015.4
20260906023016 61 0.0 0.0 0.00 0.00 0.00 91 1015.4
20260906020017 62 0.0 0.0 0.00 0.00 0.00 89 1015.3
20260906013037 62 0.0 0.0 0.00 0.00 0.00 89 1015.0
20260906010016 62 0.0 0.0 0.00 0.00 0.00 88 1014.8
20260906003016 62 0.0 0.0 0.00 0.00 0.00 86 1014.4
20260906000016 63 0.0 1.0 0.00 0.00 0.00 85 1014.3
20260905233017 64 0.0 10.0 0.00 0.00 0.00 85 1014.5
20260905230016 64 0.0 0.0 0.00 0.00 0.00 84 1014.4
20260905223016 65 0.0 0.0 0.00 0.00 0.00 85 1014.2
20260905220017 66 0.0 2.0 0.00 0.00 0.00 82 1013.9
20260905213017 68 0.0 4.0 0.00 0.00 0.00 76 1013.9
20260905210016 72 0.0 2.0 0.00 0.00 0.00 70 1013.7
20260905203016 72 0.0 0.0 0.00 0.00 0.00 68 1013.6
20260905200038 72 0.0 0.0 0.00 0.00 0.00 67 1013.4
20260905193016 72 0.0 2.0 0.00 0.00 0.00 69 1013.4
20260905190018 71 0.0 0.0 0.00 0.00 0.00 69 1013.3
20260905183036 70 0.0 0.0 0.00 0.00 0.00 71 1013.3
20260905180036 69 0.0 5.0 0.00 0.00 0.00 74 1013.4
20260905173016 70 270 1.0 7.0 0.00 0.00 0.00 73 1013.6
20260905170016 71 293 2.0 11.0 0.00 0.00 0.00 73 1013.8
20260905163016 69 270 1.0 8.0 0.00 0.00 0.00 75 1013.8
20260905160016 69 270 1.0 10.0 0.00 0.00 0.00 72 1013.9
20260905153016 67 270 1.0 7.0 0.00 0.00 0.00 75 1013.9
20260905150016 68 270 1.0 9.0 0.00 0.00 0.00 75 1014.0
20260905143016 68 293 1.0 6.0 0.00 0.00 0.00 74 1014.1
20260905140016 67 270 1.0 9.0 0.00 0.00 0.00 79 1014.0
20260905133016 64 0.0 8.0 0.00 0.00 0.00 86 1013.9
20260905130017 63 0.0 5.0 0.00 0.00 0.00 88 1014.1
20260905123016 61 0.0 6.0 0.00 0.00 0.00 93 1013.9
20260905120015 60 0.0 0.0 0.00 0.00 0.00 95 1013.7
20260905113015 60 0.0 0.0 0.00 0.00 0.00 95 1013.7
20260905110016 60 0.0 0.0 0.00 0.00 0.00 95 1013.4